Regional Weather Roundup
Issued by NWS Charleston, WV

Home | Current Version | Previous Version | Text Only | Print | Product List | Glossary Off
Versions: 1 2 3 4 5 6 7 8 9 10 11 12 13 14 15 16 17 18 19 20 21 22 23 24 25 26 27 28 29 30 31 32 33 34 35 36 37 38 39 40 41 42 43 44 45 46 47 48 49 50

222
ASUS41 KRLX 190710
RWRRLX
West Virginia Regional Weather Roundup
National Weather Service Charleston WV
200 AM EST FRI JAN 19 2018

Note: "fair" indicates few or no clouds below 12,000 feet with no
significant weather and/or obstructions to visibility.

WVZ003-190800-
Northern Panhandle of West Virginia

CITY           SKY/WX    TMP DP  RH WIND       PRES   REMARKS
WHEELING         N/A     23   9  55 SW13      30.11R
$$

WVZ009-190800-
Northwest West Virginia

CITY           SKY/WX    TMP DP  RH WIND       PRES   REMARKS
PARKERSBURG      N/A     26   9  48 SW9G18    30.21F
$$

WVZ006-190800-
Western West Virginia

CITY           SKY/WX    TMP DP  RH WIND       PRES   REMARKS
HUNTINGTON       N/A     25  10  53 S9        30.22F
$$

WVZ015-190800-
West Central West Virginia

CITY           SKY/WX    TMP DP  RH WIND       PRES   REMARKS
CHARLESTON       N/A     24  10  55 S6        30.21F
$$

WVZ022-031-190800-
North Central West Virginia

CITY           SKY/WX    TMP DP  RH WIND       PRES   REMARKS
CLARKSBURG       N/A     26   8  46 SW12      30.17F
MORGANTOWN       N/A     26   8  46 SW12G20   30.14F
$$

WVZ025-035-042-045-190800-
Southern West Virginia

CITY           SKY/WX    TMP DP  RH WIND       PRES   REMARKS
BECKLEY          N/A     20   8  60 SW9       30.17F WCI   9
LOGAN            N/A     23  12  63 CALM      30.21F
BLUEFIELD        N/A     20   4  50 W8        30.18F
LEWISBURG        N/A     23   8  52 SW6       30.17F
$$

WVZ047-190800-
Northern Mountains of West Virginia

CITY           SKY/WX    TMP DP  RH WIND       PRES   REMARKS
ELKINS           N/A     21   7  54 S8        30.14F
$$

WVZ052-190800-
Eastern Panhandle of West Virginia

CITY           SKY/WX    TMP DP  RH WIND       PRES   REMARKS
MARTINSBURG      N/A     35  12  38 W16       30.06F
PETERSBURG       N/A     36   7  29 S5        30.10F
$$




USA.gov is the U.S. government's official web portal to all federal, state and local government web resources and services.